When you browse on this site, cookies collect data to enhance your experience and personalize the content and advertising you see.
Visit our Privacy Policy to learn more. By continuing to use the site, you agree to this use of cookies and data.
  • în România
  • Lista ţărilor
  • Pe 7 zile
  • Temperatura apei
  • Hartă satelitară
  • Meteo pe hartă
  • Widget-uri
  • user-avatar
    Intrare

    Meteo pe oră la Durulino

    Astăzi, 19 Martie, Marţi

    Timp Temperatura Precipitaţii Vânt Presiune Umiditate
    00:00 +1°C° 0.4 mm 4 m/s 747 mmHg 91%
    01:00 +2°C° 0.4 mm 3 m/s 747 mmHg 93%
    02:00 +2°C° 0 mm 3 m/s 746 mmHg 95%
    03:00 +2°C° 0.4 mm 3 m/s 746 mmHg 95%
    04:00 +2°C° 0.4 mm 2 m/s 746 mmHg 96%
    05:00 +2°C° 0.4 mm 2 m/s 746 mmHg 97%
    06:00 +2°C° 0.2 mm 2 m/s 746 mmHg 97%
    07:00 +4°C° 0.2 mm 1 m/s 746 mmHg 97%
    08:00 +4°C° 0 mm 1 m/s 747 mmHg 96%
    09:00 +4°C° 0 mm 2 m/s 747 mmHg 93%
    10:00 +5°C° 0 mm 2 m/s 747 mmHg 90%
    11:00 +5°C° 0 mm 2 m/s 747 mmHg 87%
    12:00 +6°C° 0 mm 2 m/s 748 mmHg 85%
    13:00 +5°C° 0 mm 3 m/s 748 mmHg 82%
    14:00 +7°C° 0 mm 3 m/s 748 mmHg 81%
    15:00 +5°C° 0 mm 3 m/s 748 mmHg 83%
    16:00 +5°C° 0 mm 2 m/s 748 mmHg 86%
    17:00 +4°C° 0 mm 2 m/s 749 mmHg 89%
    18:00 +3°C° 0 mm 2 m/s 749 mmHg 89%
    19:00 +2°C° 0 mm 2 m/s 749 mmHg 90%
    20:00 +1°C° 0 mm 3 m/s 749 mmHg 91%
    21:00 +1°C° 0 mm 2 m/s 749 mmHg 91%
    22:00 +1°C° 0 mm 2 m/s 750 mmHg 91%
    23:00 +1°C° 0 mm 2 m/s 750 mmHg 91%

    Mâine, 20 Martie, Miercuri

    Timp Temperatura Precipitaţii Vânt Presiune Umiditate
    00:00 +1°C° 0 mm 2 m/s 750 mmHg 91%
    01:00 -1°C° 0 mm 2 m/s 750 mmHg 91%
    02:00 -1°C° 0 mm 2 m/s 750 mmHg 91%
    03:00 -1°C° 0 mm 3 m/s 750 mmHg 92%
    04:00 -2°C° 0 mm 3 m/s 750 mmHg 92%
    05:00 -2°C° 0 mm 3 m/s 751 mmHg 93%
    06:00 -1°C° 0 mm 3 m/s 751 mmHg 90%
    07:00 -1°C° 0 mm 3 m/s 751 mmHg 88%
    08:00 -1°C° 0 mm 4 m/s 751 mmHg 86%
    09:00 0°C° 0 mm 4 m/s 752 mmHg 81%
    10:00 +1°C° 0 mm 4 m/s 752 mmHg 77%
    11:00 +3°C° 0 mm 4 m/s 752 mmHg 73%
    12:00 +3°C° 0.1 mm 4 m/s 752 mmHg 72%
    13:00 +3°C° 0.1 mm 4 m/s 752 mmHg 72%
    14:00 +3°C° 0.1 mm 4 m/s 752 mmHg 72%
    15:00 +2°C° 0 mm 3 m/s 752 mmHg 75%
    16:00 +2°C° 0 mm 3 m/s 753 mmHg 78%
    17:00 +1°C° 0 mm 3 m/s 753 mmHg 81%
    18:00 0°C° 0 mm 3 m/s 753 mmHg 83%
    19:00 +1°C° 0 mm 2 m/s 753 mmHg 86%
    20:00 -1°C° 0 mm 2 m/s 753 mmHg 88%
    21:00 -1°C° 0 mm 2 m/s 752 mmHg 88%
    22:00 -1°C° 0 mm 3 m/s 752 mmHg 87%
    23:00 -2°C° 0 mm 3 m/s 752 mmHg 87%

    Poimâine, 21 Martie, Joi

    Timp Temperatura Precipitaţii Vânt Presiune Umiditate
    00:00 -2°C° 0 mm 3 m/s 751 mmHg 86%
    01:00 -1°C° 0 mm 3 m/s 750 mmHg 84%
    02:00 -1°C° 0 mm 3 m/s 750 mmHg 83%
    03:00 -1°C° 0.4 mm 3 m/s 749 mmHg 86%
    04:00 -2°C° 0.4 mm 4 m/s 748 mmHg 88%
    05:00 -2°C° 0.4 mm 4 m/s 748 mmHg 90%
    06:00 -1°C° 0.4 mm 4 m/s 748 mmHg 88%
    07:00 -1°C° 0.4 mm 4 m/s 748 mmHg 87%
    08:00 0°C° 0.4 mm 4 m/s 748 mmHg 85%
    09:00 0°C° 0.1 mm 4 m/s 748 mmHg 81%
    10:00 +1°C° 0.1 mm 5 m/s 749 mmHg 78%
    11:00 +1°C° 0.1 mm 5 m/s 749 mmHg 74%
    12:00 +1°C° 0 mm 5 m/s 749 mmHg 74%
    13:00 +1°C° 0 mm 5 m/s 750 mmHg 74%
    14:00 +2°C° 0 mm 5 m/s 750 mmHg 75%
    15:00 +1°C° 0 mm 4 m/s 750 mmHg 78%
    16:00 +2°C° 0 mm 3 m/s 750 mmHg 82%
    17:00 +2°C° 0 mm 2 m/s 750 mmHg 85%
    18:00 +2°C° 0 mm 2 m/s 750 mmHg 87%
    19:00 +1°C° 0 mm 2 m/s 750 mmHg 89%
    20:00 +2°C° 0 mm 1 m/s 750 mmHg 91%
    21:00 +1°C° 0 mm 1 m/s 750 mmHg 92%
    22:00 +1°C° 0 mm 1 m/s 750 mmHg 92%
    23:00 -2°C° 0 mm 2 m/s 750 mmHg 93%

    22 Martie, Vineri

    Timp Temperatura Precipitaţii Vânt Presiune Umiditate
    00:00 -2°C° 0 mm 2 m/s 749 mmHg 92%
    01:00 -1°C° 0 mm 2 m/s 749 mmHg 91%
    02:00 -1°C° 0 mm 2 m/s 748 mmHg 90%
    03:00 -1°C° 0.1 mm 3 m/s 747 mmHg 90%
    04:00 0°C° 0.1 mm 3 m/s 747 mmHg 91%
    05:00 0°C° 0.1 mm 4 m/s 746 mmHg 91%
    06:00 0°C° 0.1 mm 5 m/s 746 mmHg 88%
    07:00 +1°C° 0.1 mm 5 m/s 745 mmHg 85%
    08:00 +2°C° 0.1 mm 6 m/s 745 mmHg 83%
    09:00 +2°C° 0 mm 7 m/s 745 mmHg 74%
    10:00 +2°C° 0 mm 7 m/s 745 mmHg 66%
    11:00 +3°C° 0 mm 7 m/s 746 mmHg 58%
    12:00 +2°C° 0 mm 7 m/s 746 mmHg 58%
    13:00 +2°C° 0 mm 7 m/s 746 mmHg 58%
    14:00 +2°C° 0 mm 7 m/s 747 mmHg 59%
    15:00 0°C° 0 mm 7 m/s 747 mmHg 62%
    16:00 -1°C° 0 mm 6 m/s 747 mmHg 66%
    17:00 -1°C° 0 mm 6 m/s 748 mmHg 70%
    18:00 -2°C° 0 mm 6 m/s 748 mmHg 72%
    19:00 -2°C° 0 mm 6 m/s 749 mmHg 75%
    20:00 -1°C° 0 mm 5 m/s 750 mmHg 77%
    21:00 -1°C° 0 mm 5 m/s 750 mmHg 80%
    22:00 -2°C° 0 mm 5 m/s 750 mmHg 82%
    23:00 -2°C° 0 mm 4 m/s 751 mmHg 85%

    23 Martie, Sâmbătă

    Timp Temperatura Precipitaţii Vânt Presiune Umiditate
    00:00 -2°C° 0 mm 4 m/s 751 mmHg 84%
    01:00 -1°C° 0 mm 3 m/s 752 mmHg 84%
    02:00 -1°C° 0 mm 3 m/s 752 mmHg 84%
    03:00 -1°C° 0 mm 3 m/s 752 mmHg 87%
    04:00 -2°C° 0 mm 2 m/s 752 mmHg 90%
    05:00 -3°C° 0 mm 2 m/s 753 mmHg 94%
    06:00 -2°C° 0 mm 2 m/s 753 mmHg 90%
    07:00 -2°C° 0 mm 2 m/s 753 mmHg 86%
    08:00 -1°C° 0 mm 2 m/s 753 mmHg 83%
    09:00 +1°C° 0 mm 2 m/s 753 mmHg 77%
    10:00 +3°C° 0 mm 2 m/s 752 mmHg 71%
    11:00 +4°C° 0 mm 2 m/s 752 mmHg 64%
    12:00 +5°C° 0 mm 2 m/s 752 mmHg 64%
    13:00 +4°C° 0 mm 3 m/s 751 mmHg 64%
    14:00 +5°C° 0 mm 3 m/s 750 mmHg 63%
    15:00 +4°C° 0 mm 3 m/s 750 mmHg 67%
    16:00 +4°C° 0 mm 3 m/s 749 mmHg 70%
    17:00 +4°C° 0 mm 3 m/s 749 mmHg 73%
    18:00 +4°C° 0 mm 3 m/s 748 mmHg 79%
    19:00 +3°C° 0 mm 4 m/s 748 mmHg 84%
    20:00 +3°C° 0 mm 4 m/s 747 mmHg 89%
    21:00 +3°C° 0.1 mm 4 m/s 747 mmHg 90%
    22:00 +4°C° 0.1 mm 4 m/s 747 mmHg 91%
    23:00 +4°C° 0.1 mm 4 m/s 746 mmHg 91%

    24 Martie, Duminică

    Timp Temperatura Precipitaţii Vânt Presiune Umiditate
    00:00 +4°C° 0.1 mm 4 m/s 747 mmHg 88%
    01:00 +2°C° 0.1 mm 5 m/s 747 mmHg 84%
    02:00 +2°C° 0.1 mm 5 m/s 748 mmHg 80%
    03:00 0°C° 0 mm 5 m/s 748 mmHg 79%
    04:00 -1°C° 0 mm 4 m/s 749 mmHg 78%
    05:00 -2°C° 0 mm 4 m/s 749 mmHg 77%
    06:00 -2°C° 0 mm 4 m/s 750 mmHg 73%
    07:00 -1°C° 0 mm 5 m/s 750 mmHg 69%
    08:00 -1°C° 0 mm 5 m/s 751 mmHg 65%
    09:00 0°C° 0 mm 5 m/s 751 mmHg 61%
    10:00 +1°C° 0 mm 5 m/s 751 mmHg 58%
    11:00 +2°C° 0 mm 5 m/s 751 mmHg 55%
    12:00 +2°C° 0 mm 5 m/s 751 mmHg 52%
    13:00 +3°C° 0 mm 5 m/s 751 mmHg 50%
    14:00 +3°C° 0 mm 5 m/s 751 mmHg 48%
    15:00 +3°C° 0 mm 4 m/s 751 mmHg 51%
    16:00 +3°C° 0 mm 3 m/s 751 mmHg 54%
    17:00 +3°C° 0 mm 2 m/s 751 mmHg 58%
    18:00 +2°C° 0 mm 2 m/s 751 mmHg 63%
    19:00 +2°C° 0 mm 1 m/s 751 mmHg 68%
    20:00 0°C° 0 mm 1 m/s 751 mmHg 73%
    21:00 0°C° 0 mm 1 m/s 751 mmHg 73%
    22:00 0°C° 0 mm 1 m/s 751 mmHg 73%
    23:00 0°C° 0 mm 1 m/s 750 mmHg 72%
    Arată mai mult